Year,Month,Day,Hour,Minute,Value (Times are PST for barometer in hPa)
2021,01,13,00,00,991.13
2021,01,13,00,01,991.26
2021,01,13,00,02,991.26
2021,01,13,00,03,991.26
2021,01,13,00,04,991.26
2021,01,13,00,05,991.23
2021,01,13,00,06,991.37
2021,01,13,00,07,991.20
2021,01,13,00,08,991.23
2021,01,13,00,09,991.15
2021,01,13,00,10,991.60
2021,01,13,00,11,991.77
2021,01,13,00,12,991.81
2021,01,13,00,13,991.98
2021,01,13,00,14,991.98
2021,01,13,00,15,992.08
2021,01,13,00,16,992.08
2021,01,13,00,17,992.01
2021,01,13,00,18,992.25
2021,01,13,00,19,992.26
2021,01,13,00,20,992.42
2021,01,13,00,21,992.58
2021,01,13,00,22,992.69
2021,01,13,00,23,992.92
2021,01,13,00,24,992.97
2021,01,13,00,25,993.16
2021,01,13,00,26,993.43
2021,01,13,00,27,993.70
2021,01,13,00,28,993.78
2021,01,13,00,29,993.94
2021,01,13,00,30,994.02
2021,01,13,00,31,994.28
2021,01,13,00,32,994.29
2021,01,13,00,33,994.48
2021,01,13,00,34,994.79
2021,01,13,00,35,994.86
2021,01,13,00,36,995.02
2021,01,13,00,37,995.06
2021,01,13,00,38,995.26
2021,01,13,00,39,995.30
2021,01,13,00,40,995.63
2021,01,13,00,41,995.61
2021,01,13,00,42,995.78
2021,01,13,00,43,995.90
2021,01,13,00,44,996.04
2021,01,13,00,45,996.08
2021,01,13,00,46,996.21
2021,01,13,00,47,996.21
2021,01,13,00,48,996.14
2021,01,13,00,49,996.28
2021,01,13,00,50,996.14
2021,01,13,00,51,996.07
2021,01,13,00,52,996.14
2021,01,13,00,53,996.11
2021,01,13,00,54,996.41
2021,01,13,00,55,996.31
2021,01,13,00,56,996.51
2021,01,13,00,57,996.41
2021,01,13,00,58,996.58
2021,01,13,00,59,996.45
2021,01,13,01,00,996.58
2021,01,13,01,01,996.65
2021,01,13,01,02,996.75
2021,01,13,01,03,996.92
2021,01,13,01,04,996.82
2021,01,13,01,05,996.92
2021,01,13,01,06,996.90
2021,01,13,01,07,997.02
2021,01,13,01,08,996.96
2021,01,13,01,09,997.22
2021,01,13,01,10,997.35
2021,01,13,01,11,997.19
2021,01,13,01,12,997.43
2021,01,13,01,13,997.39
2021,01,13,01,14,997.46
2021,01,13,01,15,997.46
2021,01,13,01,16,997.66
2021,01,13,01,17,997.51
2021,01,13,01,18,997.66
2021,01,13,01,19,997.66
2021,01,13,01,20,997.73
2021,01,13,01,21,997.63
2021,01,13,01,22,998.00
2021,01,13,01,23,997.63
2021,01,13,01,24,997.97
2021,01,13,01,25,998.00
2021,01,13,01,26,998.00
2021,01,13,01,27,998.04
2021,01,13,01,28,998.14
2021,01,13,01,29,998.11
2021,01,13,01,30,998.44
2021,01,13,01,31,998.45
2021,01,13,01,32,998.65
2021,01,13,01,33,998.61
2021,01,13,01,34,998.65
2021,01,13,01,35,998.61
2021,01,13,01,36,998.75
2021,01,13,01,37,998.78
2021,01,13,01,38,998.99
2021,01,13,01,39,999.02
2021,01,13,01,40,998.78
2021,01,13,01,41,999.13
2021,01,13,01,42,999.29
2021,01,13,01,43,999.06
2021,01,13,01,44,999.22
2021,01,13,01,45,999.29
2021,01,13,01,46,999.36
2021,01,13,01,47,999.32
2021,01,13,01,48,999.56
2021,01,13,01,49,999.46
2021,01,13,01,50,999.70
2021,01,13,01,51,999.76
2021,01,13,01,52,999.87
2021,01,13,01,53,1000.03
2021,01,13,01,54,999.97
2021,01,13,01,55,999.93
2021,01,13,01,56,1000.01
2021,01,13,01,57,1000.14
2021,01,13,01,58,1000.04
2021,01,13,01,59,1000.31
2021,01,13,02,00,1000.34
2021,01,13,02,01,1000.37
2021,01,13,02,02,1000.34
2021,01,13,02,03,1000.51
2021,01,13,02,04,1000.41
2021,01,13,02,05,1000.78
2021,01,13,02,06,1000.78
2021,01,13,02,07,1000.92
2021,01,13,02,08,1000.98
2021,01,13,02,09,1000.99
2021,01,13,02,10,1001.19
2021,01,13,02,11,1001.19
2021,01,13,02,12,1001.12
2021,01,13,02,13,1001.39
2021,01,13,02,14,1001.15
2021,01,13,02,15,1001.25
2021,01,13,02,16,1001.08
2021,01,13,02,17,1001.66
2021,01,13,02,18,1001.40
2021,01,13,02,19,1001.59
2021,01,13,02,20,1001.73
2021,01,13,02,21,1001.76
2021,01,13,02,22,1001.80
2021,01,13,02,23,1001.80
2021,01,13,02,24,1001.93
2021,01,13,02,25,1001.97
2021,01,13,02,26,1002.00
2021,01,13,02,27,1001.97
2021,01,13,02,28,1002.30
2021,01,13,02,29,1002.34
2021,01,13,02,30,1002.47
2021,01,13,02,31,1002.37
2021,01,13,02,32,1002.68
2021,01,13,02,33,1002.47
2021,01,13,02,34,1002.61
2021,01,13,02,35,1002.79
2021,01,13,02,36,1002.98
2021,01,13,02,37,1002.98
2021,01,13,02,38,1003.18
2021,01,13,02,39,1003.32
2021,01,13,02,40,1003.29
2021,01,13,02,41,1003.32
2021,01,13,02,42,1003.25
2021,01,13,02,43,1003.35
2021,01,13,02,44,1003.39
2021,01,13,02,45,1003.79
2021,01,13,02,46,1003.69
2021,01,13,02,47,1003.90
2021,01,13,02,48,1003.93
2021,01,13,02,49,1004.13
2021,01,13,02,50,1004.34
2021,01,13,02,51,1004.50
2021,01,13,02,52,1004.67
2021,01,13,02,53,1004.61
2021,01,13,02,54,1004.74
2021,01,13,02,55,1004.64
2021,01,13,02,56,1004.84
2021,01,13,02,57,1004.84
2021,01,13,02,58,1005.01
2021,01,13,02,59,1004.94
2021,01,13,03,00,1004.78
2021,01,13,03,01,1004.78
2021,01,13,03,02,1004.64
2021,01,13,03,03,1004.81
2021,01,13,03,04,1004.95
2021,01,13,03,05,1004.98
2021,01,13,03,06,1005.11
2021,01,13,03,07,1004.88
2021,01,13,03,08,1004.95
2021,01,13,03,09,1005.01
2021,01,13,03,10,1004.95
2021,01,13,03,11,1005.35
2021,01,13,03,12,1005.35
2021,01,13,03,13,1005.42
2021,01,13,03,14,1005.25
2021,01,13,03,15,1005.39
2021,01,13,03,16,1005.42
2021,01,13,03,17,1005.42
2021,01,13,03,18,1005.66
2021,01,13,03,19,1005.72
2021,01,13,03,20,1005.62
2021,01,13,03,21,1005.76
2021,01,13,03,22,1005.89
2021,01,13,03,23,1006.00
2021,01,13,03,24,1006.27
2021,01,13,03,25,1006.27
2021,01,13,03,26,1006.27
2021,01,13,03,27,1006.37
2021,01,13,03,28,1006.50
2021,01,13,03,29,1006.47
2021,01,13,03,30,1006.54
2021,01,13,03,31,1006.71
2021,01,13,03,32,1006.71
2021,01,13,03,33,1006.77
2021,01,13,03,34,1006.64
2021,01,13,03,35,1006.67
2021,01,13,03,36,1006.77
2021,01,13,03,37,1006.88
2021,01,13,03,38,1007.04
2021,01,13,03,39,1006.94
2021,01,13,03,40,1007.18
2021,01,13,03,41,1007.25
2021,01,13,03,42,1007.21
2021,01,13,03,43,1007.25
2021,01,13,03,44,1007.04
2021,01,13,03,45,1007.42
2021,01,13,03,46,1007.32
2021,01,13,03,47,1007.33
2021,01,13,03,48,1007.48
2021,01,13,03,49,1007.52
2021,01,13,03,50,1007.59
2021,01,13,03,51,1007.72
2021,01,13,03,52,1007.80
2021,01,13,03,53,1008.03
2021,01,13,03,54,1008.16
2021,01,13,03,55,1008.20
2021,01,13,03,56,1008.23
2021,01,13,03,57,1008.37
2021,01,13,03,58,1008.40
2021,01,13,03,59,1008.53
2021,01,13,04,00,1008.40
2021,01,13,04,01,1008.47
2021,01,13,04,02,1008.50
2021,01,13,04,03,1008.50
2021,01,13,04,04,1008.43
2021,01,13,04,05,1008.64
2021,01,13,04,06,1008.64
2021,01,13,04,07,1008.64
2021,01,13,04,08,1008.74
2021,01,13,04,09,1008.70
2021,01,13,04,10,1008.74
2021,01,13,04,11,1008.81
2021,01,13,04,12,1008.91
2021,01,13,04,13,1008.87
2021,01,13,04,14,1008.94
2021,01,13,04,15,1009.18
2021,01,13,04,16,1009.11
2021,01,13,04,17,1009.21
2021,01,13,04,18,1009.25
2021,01,13,04,19,1009.38
2021,01,13,04,20,1009.31
2021,01,13,04,21,1009.32
2021,01,13,04,22,1009.45
2021,01,13,04,23,1009.47
2021,01,13,04,24,1009.21
2021,01,13,04,25,1009.62
2021,01,13,04,26,1009.48
2021,01,13,04,27,1009.48
2021,01,13,04,28,1009.58
2021,01,13,04,29,1009.63
2021,01,13,04,30,1009.82
2021,01,13,04,31,1009.62
2021,01,13,04,32,1009.70
2021,01,13,04,33,1009.92
2021,01,13,04,34,1010.02
2021,01,13,04,35,1009.96
2021,01,13,04,36,1010.13
2021,01,13,04,37,1010.09
2021,01,13,04,38,1010.36
2021,01,13,04,39,1010.23
2021,01,13,04,40,1010.30
2021,01,13,04,41,1010.46
2021,01,13,04,42,1010.26
2021,01,13,04,43,1010.40
2021,01,13,04,44,1010.49
2021,01,13,04,45,1010.30
2021,01,13,04,46,1010.40
2021,01,13,04,47,1010.47
2021,01,13,04,48,1010.77
2021,01,13,04,49,1010.84
2021,01,13,04,50,1010.94
2021,01,13,04,51,1011.01
2021,01,13,04,52,1011.04
2021,01,13,04,53,1011.04
2021,01,13,04,54,1011.07
2021,01,13,04,55,1011.14
2021,01,13,04,56,1011.07
2021,01,13,04,57,1011.07
2021,01,13,04,58,1011.02
2021,01,13,04,59,1011.21
2021,01,13,05,00,1011.28
2021,01,13,05,01,1011.35
2021,01,13,05,02,1011.18
2021,01,13,05,03,1011.28
2021,01,13,05,04,1011.28
2021,01,13,05,05,1011.28
2021,01,13,05,06,1011.28
2021,01,13,05,07,1011.28
2021,01,13,05,08,1011.28
2021,01,13,05,09,1011.31
2021,01,13,05,10,1011.51
2021,01,13,05,11,1011.39
2021,01,13,05,12,1011.58
2021,01,13,05,13,1011.39
2021,01,13,05,14,1011.68
2021,01,13,05,15,1011.75
2021,01,13,05,16,1011.58
2021,01,13,05,17,1011.25
2021,01,13,05,18,1011.55
2021,01,13,05,19,1011.75
2021,01,13,05,20,1011.68
2021,01,13,05,21,1011.82
2021,01,13,05,22,1011.59
2021,01,13,05,23,1011.92
2021,01,13,05,24,1011.89
2021,01,13,05,25,1012.06
2021,01,13,05,26,1011.99
2021,01,13,05,27,1012.00
2021,01,13,05,28,1012.29
2021,01,13,05,29,1012.12
2021,01,13,05,30,1012.19
2021,01,13,05,31,1012.09
2021,01,13,05,32,1012.26
2021,01,13,05,33,1012.16
2021,01,13,05,34,1012.26
2021,01,13,05,35,1012.40
2021,01,13,05,36,1012.46
2021,01,13,05,37,1012.24
2021,01,13,05,38,1012.43
2021,01,13,05,39,1012.33
2021,01,13,05,40,1012.26
2021,01,13,05,41,1012.56
2021,01,13,05,42,1012.53
2021,01,13,05,43,1012.60
2021,01,13,05,44,1012.70
2021,01,13,05,45,1012.77
2021,01,13,05,46,1012.73
2021,01,13,05,47,1012.87
2021,01,13,05,48,1012.77
2021,01,13,05,49,1012.84
2021,01,13,05,50,1012.87
2021,01,13,05,51,1012.77
2021,01,13,05,52,1012.84
2021,01,13,05,53,1012.77
2021,01,13,05,54,1012.84
2021,01,13,05,55,1013.00
2021,01,13,05,56,1012.90
2021,01,13,05,57,1012.98
2021,01,13,05,58,1013.17
2021,01,13,05,59,1013.04
2021,01,13,06,00,1013.21
2021,01,13,06,01,1013.51
2021,01,13,06,02,1013.58
2021,01,13,06,03,1013.55
2021,01,13,06,04,1013.85
2021,01,13,06,05,1013.85
2021,01,13,06,06,1013.99
2021,01,13,06,07,1014.09
2021,01,13,06,08,1014.16
2021,01,13,06,09,1014.16
2021,01,13,06,10,1014.16
2021,01,13,06,11,1014.29
2021,01,13,06,12,1014.33
2021,01,13,06,13,1014.29
2021,01,13,06,14,1014.39
2021,01,13,06,15,1014.36
2021,01,13,06,16,1014.46
2021,01,13,06,17,1014.39
2021,01,13,06,18,1014.49
2021,01,13,06,19,1014.60
2021,01,13,06,20,1014.56
2021,01,13,06,21,1014.46
2021,01,13,06,22,1014.46
2021,01,13,06,23,1014.53
2021,01,13,06,24,1014.66
2021,01,13,06,25,1014.73
2021,01,13,06,26,1014.83
2021,01,13,06,27,1014.90
2021,01,13,06,28,1014.83
2021,01,13,06,29,1014.97
2021,01,13,06,30,1014.90
2021,01,13,06,31,1015.00
2021,01,13,06,32,1015.00
2021,01,13,06,33,1015.07
2021,01,13,06,34,1015.21
2021,01,13,06,35,1015.34
2021,01,13,06,36,1015.41
2021,01,13,06,37,1015.38
2021,01,13,06,38,1015.34
2021,01,13,06,39,1015.34
2021,01,13,06,40,1015.44
2021,01,13,06,41,1015.41
2021,01,13,06,42,1015.44
2021,01,13,06,43,1015.44
2021,01,13,06,44,1015.48
2021,01,13,06,45,1015.44
2021,01,13,06,46,1015.54
2021,01,13,06,47,1015.62
2021,01,13,06,48,1015.82
2021,01,13,06,49,1015.71
2021,01,13,06,50,1015.75
2021,01,13,06,51,1015.68
2021,01,13,06,52,1015.78
2021,01,13,06,53,1015.78
2021,01,13,06,54,1015.85
2021,01,13,06,55,1015.85
2021,01,13,06,56,1015.95
2021,01,13,06,57,1015.88
2021,01,13,06,58,1015.95
2021,01,13,06,59,1015.98
2021,01,13,07,00,1016.09
2021,01,13,07,01,1016.09
2021,01,13,07,02,1016.19
2021,01,13,07,03,1016.19
2021,01,13,07,04,1016.36
2021,01,13,07,05,1016.46
2021,01,13,07,06,1016.36
2021,01,13,07,07,1016.36
2021,01,13,07,08,1016.39
2021,01,13,07,09,1016.49
2021,01,13,07,10,1016.46
2021,01,13,07,11,1016.49
2021,01,13,07,12,1016.46
2021,01,13,07,13,1016.53
2021,01,13,07,14,1016.59
2021,01,13,07,15,1016.59
2021,01,13,07,16,1016.66
2021,01,13,07,17,1016.73
2021,01,13,07,18,1016.80
2021,01,13,07,19,1016.93
2021,01,13,07,20,1016.87
2021,01,13,07,21,1016.90
2021,01,13,07,22,1016.90
2021,01,13,07,23,1016.83
2021,01,13,07,24,1016.87
2021,01,13,07,25,1016.83
2021,01,13,07,26,1016.83
2021,01,13,07,27,1016.83
2021,01,13,07,28,1016.87
2021,01,13,07,29,1016.87
2021,01,13,07,30,1016.93
2021,01,13,07,31,1016.90
2021,01,13,07,32,1017.03
2021,01,13,07,33,1017.03
2021,01,13,07,34,1017.07
2021,01,13,07,35,1017.07
2021,01,13,07,36,1017.20
2021,01,13,07,37,1017.14
2021,01,13,07,38,1017.14
2021,01,13,07,39,1017.24
2021,01,13,07,40,1017.34
2021,01,13,07,41,1017.61
2021,01,13,07,42,1017.54
2021,01,13,07,43,1017.78
2021,01,13,07,44,1017.81
2021,01,13,07,45,1017.91
2021,01,13,07,46,1017.98
2021,01,13,07,47,1018.02
2021,01,13,07,48,1018.12
2021,01,13,07,49,1018.25
2021,01,13,07,50,1018.19
2021,01,13,07,51,1018.25
2021,01,13,07,52,1018.19
2021,01,13,07,53,1018.29
2021,01,13,07,54,1018.36
2021,01,13,07,55,1018.49
2021,01,13,07,56,1018.46
2021,01,13,07,57,1018.52
2021,01,13,07,58,1018.49
2021,01,13,07,59,1018.56
2021,01,13,08,00,1018.66
2021,01,13,08,01,1018.73
2021,01,13,08,02,1018.73
2021,01,13,08,03,1018.83
2021,01,13,08,04,1018.86
2021,01,13,08,05,1018.90
2021,01,13,08,06,1018.96
2021,01,13,08,07,1019.00
2021,01,13,08,08,1019.13
2021,01,13,08,09,1019.14
2021,01,13,08,10,1019.27
2021,01,13,08,11,1019.24
2021,01,13,08,12,1019.40
2021,01,13,08,13,1019.21
2021,01,13,08,14,1019.37
2021,01,13,08,15,1019.38
2021,01,13,08,16,1019.61
2021,01,13,08,17,1019.64
2021,01,13,08,18,1019.64
2021,01,13,08,19,1019.68
2021,01,13,08,20,1019.78
2021,01,13,08,21,1019.85
2021,01,13,08,22,1019.91
2021,01,13,08,23,1019.98
2021,01,13,08,24,1020.01
2021,01,13,08,25,1020.01
2021,01,13,08,26,1020.12
2021,01,13,08,27,1020.22
2021,01,13,08,28,1020.32
2021,01,13,08,29,1020.29
2021,01,13,08,30,1020.29
2021,01,13,08,31,1020.35
2021,01,13,08,32,1020.45
2021,01,13,08,33,1020.49
2021,01,13,08,34,1020.45
2021,01,13,08,35,1020.56
2021,01,13,08,36,1020.52
2021,01,13,08,37,1020.73
2021,01,13,08,38,1020.73
2021,01,13,08,39,1020.67
2021,01,13,08,40,1020.83
2021,01,13,08,41,1020.83
2021,01,13,08,42,1020.89
2021,01,13,08,43,1020.93
2021,01,13,08,44,1021.00
2021,01,13,08,45,1021.10
2021,01,13,08,46,1020.89
2021,01,13,08,47,1021.00
2021,01,13,08,48,1021.06
2021,01,13,08,49,1021.20
2021,01,13,08,50,1021.40
2021,01,13,08,51,1021.47
2021,01,13,08,52,1021.57
2021,01,13,08,53,1021.54
2021,01,13,08,54,1021.61
2021,01,13,08,55,1021.67
2021,01,13,08,56,1021.67
2021,01,13,08,57,1021.74
2021,01,13,08,58,1021.64
2021,01,13,08,59,1021.78
2021,01,13,09,00,1021.67
2021,01,13,09,01,1021.74
2021,01,13,09,02,1021.68
2021,01,13,09,03,1021.91
2021,01,13,09,04,1021.88
2021,01,13,09,05,1021.88
2021,01,13,09,06,1021.91
2021,01,13,09,07,1021.94
2021,01,13,09,08,1021.98
2021,01,13,09,09,1022.05
2021,01,13,09,10,1022.01
2021,01,13,09,11,1021.94
2021,01,13,09,12,1022.08
2021,01,13,09,13,1022.18
2021,01,13,09,14,1022.18
2021,01,13,09,15,1022.28
2021,01,13,09,16,1022.22
2021,01,13,09,17,1022.28
2021,01,13,09,18,1022.28
2021,01,13,09,19,1022.32
2021,01,13,09,20,1022.39
2021,01,13,09,21,1022.32
2021,01,13,09,22,1022.39
2021,01,13,09,23,1022.42
2021,01,13,09,24,1022.35
2021,01,13,09,25,1022.45
2021,01,13,09,26,1022.55
2021,01,13,09,27,1022.59
2021,01,13,09,28,1022.69
2021,01,13,09,29,1022.76
2021,01,13,09,30,1022.83
2021,01,13,09,31,1022.86
2021,01,13,09,32,1022.86
2021,01,13,09,33,1022.86
2021,01,13,09,34,1022.93
2021,01,13,09,35,1022.93
2021,01,13,09,36,1022.93
2021,01,13,09,37,1022.89
2021,01,13,09,38,1023.03
2021,01,13,09,39,1022.89
2021,01,13,09,40,1023.06
2021,01,13,09,41,1022.99
2021,01,13,09,42,1023.10
2021,01,13,09,43,1023.10
2021,01,13,09,44,1023.16
2021,01,13,09,45,1023.16
2021,01,13,09,46,1023.16
2021,01,13,09,47,1023.27
2021,01,13,09,48,1023.20
2021,01,13,09,49,1023.27
2021,01,13,09,50,1023.33
2021,01,13,09,51,1023.43
2021,01,13,09,52,1023.40
2021,01,13,09,53,1023.57
2021,01,13,09,54,1023.47
2021,01,13,09,55,1023.54
2021,01,13,09,56,1023.54
2021,01,13,09,57,1023.71
2021,01,13,09,58,1023.71
2021,01,13,09,59,1023.81
2021,01,13,10,00,1023.98
2021,01,13,10,01,1024.01
2021,01,13,10,02,1023.98
2021,01,13,10,03,1023.98
2021,01,13,10,04,1024.15
2021,01,13,10,05,1024.04
2021,01,13,10,06,1024.08
2021,01,13,10,07,1024.15
2021,01,13,10,08,1024.18
2021,01,13,10,09,1024.18
2021,01,13,10,10,1024.28
2021,01,13,10,11,1024.32
2021,01,13,10,12,1024.28
2021,01,13,10,13,1024.35
2021,01,13,10,14,1024.48
2021,01,13,10,15,1024.48
2021,01,13,10,16,1024.55
2021,01,13,10,17,1024.55
2021,01,13,10,18,1024.59
2021,01,13,10,19,1024.55
2021,01,13,10,20,1024.62
2021,01,13,10,21,1024.69
2021,01,13,10,22,1024.65
2021,01,13,10,23,1024.72
2021,01,13,10,24,1024.69
2021,01,13,10,25,1024.72
2021,01,13,10,26,1024.72
2021,01,13,10,27,1024.82
2021,01,13,10,28,1024.79
2021,01,13,10,29,1024.86
2021,01,13,10,30,1024.82
2021,01,13,10,31,1024.86
2021,01,13,10,32,1024.89
2021,01,13,10,33,1024.96
2021,01,13,10,34,1024.96
2021,01,13,10,35,1024.96
2021,01,13,10,36,1024.99
2021,01,13,10,37,1025.03
2021,01,13,10,38,1024.96
2021,01,13,10,39,1024.96
2021,01,13,10,40,1024.92
2021,01,13,10,41,1024.89
2021,01,13,10,42,1024.96
2021,01,13,10,43,1024.92
2021,01,13,10,44,1024.92
2021,01,13,10,45,1024.96
2021,01,13,10,46,1024.96
2021,01,13,10,47,1025.06
2021,01,13,10,48,1025.03
2021,01,13,10,49,1025.13
2021,01,13,10,50,1025.06
2021,01,13,10,51,1025.06
2021,01,13,10,52,1025.16
2021,01,13,10,53,1025.23
2021,01,13,10,54,1025.33
2021,01,13,10,55,1025.33
2021,01,13,10,56,1025.30
2021,01,13,10,57,1025.37
2021,01,13,10,58,1025.30
2021,01,13,10,59,1025.40
2021,01,13,11,00,1025.40
2021,01,13,11,01,1025.50
2021,01,13,11,02,1025.60
2021,01,13,11,03,1025.64
2021,01,13,11,04,1025.64
2021,01,13,11,05,1025.67
2021,01,13,11,06,1025.70
2021,01,13,11,07,1025.70
2021,01,13,11,08,1025.70
2021,01,13,11,09,1025.67
2021,01,13,11,10,1025.70
2021,01,13,11,11,1025.77
2021,01,13,11,12,1025.64
2021,01,13,11,13,1025.74
2021,01,13,11,14,1025.81
2021,01,13,11,15,1025.81
2021,01,13,11,16,1025.81
2021,01,13,11,17,1025.87
2021,01,13,11,18,1025.81
2021,01,13,11,19,1025.91
2021,01,13,11,20,1025.94
2021,01,13,11,21,1025.87
2021,01,13,11,22,1025.87
2021,01,13,11,23,1025.81
2021,01,13,11,24,1025.81
2021,01,13,11,25,1025.84
2021,01,13,11,26,1025.84
2021,01,13,11,27,1025.87
2021,01,13,11,28,1025.94
2021,01,13,11,29,1025.87
2021,01,13,11,30,1025.94
2021,01,13,11,31,1026.01
2021,01,13,11,32,1026.18
2021,01,13,11,33,1026.11
2021,01,13,11,34,1026.11
2021,01,13,11,35,1026.01
2021,01,13,11,36,1026.04
2021,01,13,11,37,1026.18
2021,01,13,11,38,1026.08
2021,01,13,11,39,1026.11
2021,01,13,11,40,1026.11
2021,01,13,11,41,1026.11
2021,01,13,11,42,1026.18
2021,01,13,11,43,1026.18
2021,01,13,11,44,1026.31
2021,01,13,11,45,1026.31
2021,01,13,11,46,1026.35
2021,01,13,11,47,1026.41
2021,01,13,11,48,1026.38
2021,01,13,11,49,1026.38
2021,01,13,11,50,1026.35
2021,01,13,11,51,1026.35
2021,01,13,11,52,1026.45
2021,01,13,11,53,1026.41
2021,01,13,11,54,1026.35
2021,01,13,11,55,1026.35
2021,01,13,11,56,1026.28
2021,01,13,11,57,1026.28
2021,01,13,11,58,1026.28
2021,01,13,11,59,1026.28
2021,01,13,12,00,1026.38
2021,01,13,12,01,1026.52
2021,01,13,12,02,1026.58
2021,01,13,12,03,1026.58
2021,01,13,12,04,1026.65
2021,01,13,12,05,1026.65
2021,01,13,12,06,1026.58
2021,01,13,12,07,1026.55
2021,01,13,12,08,1026.41
2021,01,13,12,09,1026.31
2021,01,13,12,10,1026.45
2021,01,13,12,11,1026.65
2021,01,13,12,12,1026.65
2021,01,13,12,13,1026.75
2021,01,13,12,14,1026.65
2021,01,13,12,15,1026.62
2021,01,13,12,16,1026.48
2021,01,13,12,17,1026.55
2021,01,13,12,18,1026.55
2021,01,13,12,19,1026.55
2021,01,13,12,20,1026.52
2021,01,13,12,21,1026.55
2021,01,13,12,22,1026.55
2021,01,13,12,23,1026.65
2021,01,13,12,24,1026.72
2021,01,13,12,25,1026.75
2021,01,13,12,26,1026.75
2021,01,13,12,27,1026.65
2021,01,13,12,28,1026.69
2021,01,13,12,29,1026.69
2021,01,13,12,30,1026.62
2021,01,13,12,31,1026.55
2021,01,13,12,32,1026.58
2021,01,13,12,33,1026.65
2021,01,13,12,34,1026.69
2021,01,13,12,35,1026.58
2021,01,13,12,36,1026.69
2021,01,13,12,37,1026.72
2021,01,13,12,38,1026.65
2021,01,13,12,39,1026.65
2021,01,13,12,40,1026.65
2021,01,13,12,41,1026.58
2021,01,13,12,42,1026.69
2021,01,13,12,43,1026.62
2021,01,13,12,44,1026.69
2021,01,13,12,45,1026.72
2021,01,13,12,46,1026.69
2021,01,13,12,47,1026.79
2021,01,13,12,48,1026.75
2021,01,13,12,49,1026.72
2021,01,13,12,50,1026.72
2021,01,13,12,51,1026.79
2021,01,13,12,52,1026.82
2021,01,13,12,53,1026.72
2021,01,13,12,54,1026.79
2021,01,13,12,55,1026.75
2021,01,13,12,56,1026.72
2021,01,13,12,57,1026.79
2021,01,13,12,58,1026.75
2021,01,13,12,59,1026.79
2021,01,13,13,00,1026.79
2021,01,13,13,01,1026.79
2021,01,13,13,02,1026.82
2021,01,13,13,03,1026.86
2021,01,13,13,04,1026.89
2021,01,13,13,05,1026.89
2021,01,13,13,06,1026.86
2021,01,13,13,07,1026.86
2021,01,13,13,08,1026.89
2021,01,13,13,09,1026.92
2021,01,13,13,10,1026.92
2021,01,13,13,11,1026.82
2021,01,13,13,12,1026.89
2021,01,13,13,13,1026.92
2021,01,13,13,14,1026.92
2021,01,13,13,15,1026.92
2021,01,13,13,16,1026.86
2021,01,13,13,17,1026.92
2021,01,13,13,18,1026.99
2021,01,13,13,19,1026.99
2021,01,13,13,20,1027.09
2021,01,13,13,21,1027.09
2021,01,13,13,22,1027.19
2021,01,13,13,23,1027.30
2021,01,13,13,24,1027.36
2021,01,13,13,25,1027.36
2021,01,13,13,26,1027.40
2021,01,13,13,27,1027.33
2021,01,13,13,28,1027.36
2021,01,13,13,29,1027.40
2021,01,13,13,30,1027.40
2021,01,13,13,31,1027.46
2021,01,13,13,32,1027.57
2021,01,13,13,33,1027.46
2021,01,13,13,34,1027.53
2021,01,13,13,35,1027.57
2021,01,13,13,36,1027.53
2021,01,13,13,37,1027.46
2021,01,13,13,38,1027.57
2021,01,13,13,39,1027.40
2021,01,13,13,40,1027.36
2021,01,13,13,41,1027.36
2021,01,13,13,42,1027.46
2021,01,13,13,43,1027.40
2021,01,13,13,44,1027.50
2021,01,13,13,45,1027.43
2021,01,13,13,46,1027.53
2021,01,13,13,47,1027.53
2021,01,13,13,48,1027.57
2021,01,13,13,49,1027.67
2021,01,13,13,50,1027.74
2021,01,13,13,51,1027.77
2021,01,13,13,52,1027.77
2021,01,13,13,53,1027.84
2021,01,13,13,54,1027.84
2021,01,13,13,55,1027.87
2021,01,13,13,56,1027.87
2021,01,13,13,57,1027.90
2021,01,13,13,58,1027.90
2021,01,13,13,59,1027.87
2021,01,13,14,00,1027.84
2021,01,13,14,01,1027.94
2021,01,13,14,02,1027.97
2021,01,13,14,03,1028.07
2021,01,13,14,04,1028.07
2021,01,13,14,05,1028.07
2021,01,13,14,06,1028.07
2021,01,13,14,07,1028.04
2021,01,13,14,08,1028.07
2021,01,13,14,09,1028.11
2021,01,13,14,10,1028.11
2021,01,13,14,11,1028.18
2021,01,13,14,12,1028.21
2021,01,13,14,13,1028.24
2021,01,13,14,14,1028.28
2021,01,13,14,15,1028.38
2021,01,13,14,16,1028.38
2021,01,13,14,17,1028.41
2021,01,13,14,18,1028.45
2021,01,13,14,19,1028.48
2021,01,13,14,20,1028.55
2021,01,13,14,21,1028.65
2021,01,13,14,22,1028.68
2021,01,13,14,23,1028.65
2021,01,13,14,24,1028.72
2021,01,13,14,25,1028.75
2021,01,13,14,26,1028.82
2021,01,13,14,27,1028.85
2021,01,13,14,28,1028.85
2021,01,13,14,29,1028.89
2021,01,13,14,30,1028.95
2021,01,13,14,31,1028.92
2021,01,13,14,32,1029.06
2021,01,13,14,33,1029.02
2021,01,13,14,34,1029.12
2021,01,13,14,35,1029.12
2021,01,13,14,36,1029.19
2021,01,13,14,37,1029.19
2021,01,13,14,38,1029.19
2021,01,13,14,39,1029.19
2021,01,13,14,40,1029.23
2021,01,13,14,41,1029.29
2021,01,13,14,42,1029.29
2021,01,13,14,43,1029.36
2021,01,13,14,44,1029.43
2021,01,13,14,45,1029.43
2021,01,13,14,46,1029.39
2021,01,13,14,47,1029.46
2021,01,13,14,48,1029.46
2021,01,13,14,49,1029.50
2021,01,13,14,50,1029.50
2021,01,13,14,51,1029.43
2021,01,13,14,52,1029.39
2021,01,13,14,53,1029.43
2021,01,13,14,54,1029.46
2021,01,13,14,55,1029.46
2021,01,13,14,56,1029.56
2021,01,13,14,57,1029.53
2021,01,13,14,58,1029.46
2021,01,13,14,59,1029.60
2021,01,13,15,00,1029.67
2021,01,13,15,01,1029.60
2021,01,13,15,02,1029.67
2021,01,13,15,03,1029.67
2021,01,13,15,04,1029.67
2021,01,13,15,05,1029.60
2021,01,13,15,06,1029.63
2021,01,13,15,07,1029.63
2021,01,13,15,08,1029.70
2021,01,13,15,09,1029.70
2021,01,13,15,10,1029.67
2021,01,13,15,11,1029.73
2021,01,13,15,12,1029.77
2021,01,13,15,13,1029.84
2021,01,13,15,14,1029.87
2021,01,13,15,15,1029.90
2021,01,13,15,16,1029.97
2021,01,13,15,17,1030.07
2021,01,13,15,18,1030.04
2021,01,13,15,19,1030.11
2021,01,13,15,20,1030.21
2021,01,13,15,21,1030.24
2021,01,13,15,22,1030.28
2021,01,13,15,23,1030.38
2021,01,13,15,24,1030.38
2021,01,13,15,25,1030.28
2021,01,13,15,26,1030.41
2021,01,13,15,27,1030.38
2021,01,13,15,28,1030.44
2021,01,13,15,29,1030.48
2021,01,13,15,30,1030.55
2021,01,13,15,31,1030.55
2021,01,13,15,32,1030.55
2021,01,13,15,33,1030.58
2021,01,13,15,34,1030.55
2021,01,13,15,35,1030.48
2021,01,13,15,36,1030.55
2021,01,13,15,37,1030.44
2021,01,13,15,38,1030.58
2021,01,13,15,39,1030.55
2021,01,13,15,40,1030.51
2021,01,13,15,41,1030.55
2021,01,13,15,42,1030.58
2021,01,13,15,43,1030.55
2021,01,13,15,44,1030.51
2021,01,13,15,45,1030.58
2021,01,13,15,46,1030.51
2021,01,13,15,47,1030.58
2021,01,13,15,48,1030.58
2021,01,13,15,49,1030.61
2021,01,13,15,50,1030.65
2021,01,13,15,51,1030.65
2021,01,13,15,52,1030.68
2021,01,13,15,53,1030.75
2021,01,13,15,54,1030.75
2021,01,13,15,55,1030.82
2021,01,13,15,56,1030.92
2021,01,13,15,57,1030.85
2021,01,13,15,58,1030.95
2021,01,13,15,59,1031.02
2021,01,13,16,00,1031.02